Theta_e
297 298 298 299 299 299 298 298 298 297 297 296 296 296 296 295 295 295 295 295 294 294 293 292 293 294 293 294 294 293 292 293 294 295 295 294 293 292 291 291 290 290 290
297 297 297 298 298 298 298 298 298 297 297 296 296 296 296 295 295 295 295 294 294 294 293 292 293 293 294 294 294 293 292 294 294 295 295 294 293 292 291 291 290 289 290
296 296 296 297 298 299 299 298 298 298 297 297 296 296 296 295 295 295 295 294 293 293 293 292 293 294 294 295 295 293 294 295 295 295 294 293 292 292 292 291 290 290 289
296 296 296 297 298 299 299 298 298 298 297 297 297 296 296 295 295 295 295 294 293 293 292 292 293 294 294 294 295 294 294 295 295 294 294 293 292 292 292 291 289 290 290
296 296 297 297 297 297 298 298 298 298 298 297 297 296 296 295 295 295 295 294 293 293 292 292 293 294 295 296 297 296 294 295 295 294 294 293 292 292 292 290 289 288 290
296 297 297 297 297 297 298 298 298 298 298 297 297 297 296 296 296 295 295 295 294 293 293 293 295 295 296 294 297 295 294 295 295 293 293 293 293 292 292 290 288 288 289
297 297 297 297 297 297 297 297 297 298 298 297 297 297 297 296 296 295 295 296 295 294 294 295 295 296 295 293 294 294 294 295 293 293 293 293 292 292 292 291 290 288 289
297 297 297 297 297 297 297 297 297 297 297 297 297 297 297 297 296 295 297 297 296 295 295 295 296 296 295 293 294 292 293 294 292 289 290 291 292 293 294 292 292 290 290
297 297 297 297 297 297 296 297 297 296 297 297 297 297 297 297 297 296 297 297 296 295 295 295 296 295 294 293 294 293 293 294 292 290 291 292 292 292 293 293 292 291 291
299 299 298 298 297 297 297 297 297 296 297 297 297 297 297 297 297 296 297 297 296 295 295 295 295 295 294 294 296 295 293 294 292 291 289 289 291 291 290 290 290 291 291
303 302 299 298 297 297 297 296 296 296 296 296 296 296 297 296 297 296 296 297 296 295 294 295 295 295 296 296 296 295 294 294 292 292 289 289 289 289 289 289 289 289 290
302 301 302 300 298 297 296 296 296 295 295 294 295 295 296 296 296 296 296 298 297 295 294 294 295 295 295 296 295 295 295 294 293 292 289 288 289 289 289 289 288 288 289
304 303 303 301 299 298 296 296 295 295 294 294 293 294 294 296 296 296 296 298 298 297 296 295 295 295 296 296 295 295 294 294 293 290 289 288 288 288 288 288 288 288 288
300 300 300 300 300 299 297 295 295 294 294 294 294 294 294 294 295 296 296 297 298 298 298 297 296 296 296 296 295 295 294 292 292 290 289 288 287 288 287 288 288 287 287
299 298 298 298 298 298 298 297 296 296 295 295 294 295 294 294 296 297 296 295 296 298 298 298 297 297 296 296 295 294 293 291 291 289 289 288 287 287 287 287 287 287 288
296 296 296 296 297 297 296 296 296 296 295 295 295 295 295 295 296 296 296 296 296 295 297 296 296 296 296 295 294 293 292 290 290 289 289 288 288 288 288 287 287 287 287
295 295 295 296 296 296 295 294 295 296 296 296 296 297 296 296 296 296 296 296 296 296 296 295 296 295 295 294 293 292 291 291 290 290 289 289 288 287 288 288 287 287 287
294 295 294 294 295 295 295 295 294 294 295 295 296 297 297 297 297 296 296 296 298 297 296 294 294 294 294 293 292 292 290 289 289 289 289 289 288 288 287 287 287 287 287
294 293 293 293 294 295 295 294 294 293 293 294 294 295 296 298 298 298 297 298 298 297 296 295 293 293 293 293 293 292 289 289 289 289 289 288 288 287 287 287 287 286 287
293 292 292 293 293 293 294 294 293 293 293 293 293 294 295 296 298 299 298 298 297 296 296 295 294 293 293 294 293 291 288 288 288 288 289 289 288 287 287 287 286 286 286
292 292 292 293 293 293 293 293 293 293 293 293 293 294 294 294 297 298 298 298 297 296 295 295 294 293 294 294 293 290 288 288 288 289 288 288 288 287 287 287 286 286 286
292 292 292 292 293 292 292 292 293 293 293 292 293 293 294 294 294 296 297 297 297 296 295 295 294 294 294 295 294 291 288 288 288 288 288 288 288 287 287 287 286 285 285
293 293 292 292 291 291 292 292 292 292 292 292 292 292 292 293 294 294 295 296 296 296 296 295 294 294 294 294 294 293 289 289 289 289 288 288 288 288 287 287 286 285 285
292 292 292 291 290 290 291 291 291 291 292 292 292 292 291 292 292 293 294 295 295 295 295 295 294 294 295 294 293 292 290 289 289 289 289 288 288 288 287 286 285 285 285
291 291 290 290 289 289 289 290 290 290 291 291 291 291 291 291 291 292 292 293 294 294 294 294 294 294 294 294 294 292 290 289 289 289 288 288 288 288 287 286 285 284 284
290 289 289 289 290 290 290 290 290 290 290 290 290 291 291 291 291 292 291 292 292 292 292 293 293 293 294 294 293 291 290 289 289 288 288 288 287 287 287 286 285 284 284
Wind_Speed
41 43 44 45 42 39 36 34 31 28 25 25 23 22 21 20 19 19 18 17 18 17 16 15 15 13 14 12 11 11 11 10 16 25 22 22 22 22 23 21 18 16 13
36 37 42 43 41 39 38 36 32 31 28 26 25 24 23 22 20 20 19 18 18 17 16 15 14 12 12 11 11 11 11 13 13 19 22 22 21 21 21 20 18 16 12
29 32 34 37 41 41 39 36 34 32 31 28 27 27 26 24 22 21 20 19 19 18 17 16 14 12 12 10 10 11 11 14 12 13 21 19 20 19 21 19 16 14 9
27 29 31 35 40 41 39 37 34 33 33 32 30 29 27 25 24 22 21 20 20 19 18 17 16 14 13 13 11 11 12 15 12 15 18 18 17 18 18 20 20 14 8
25 27 32 32 34 36 37 37 35 33 34 33 31 30 28 27 26 24 23 21 20 20 19 17 17 16 14 13 16 11 14 13 12 14 14 15 15 17 18 14 15 16 9
22 26 26 27 29 33 35 36 35 33 33 33 33 33 31 30 28 25 23 22 21 20 20 18 16 16 15 15 15 14 15 13 13 11 12 13 14 15 17 12 11 12 7
19 21 23 25 28 30 32 33 35 35 34 35 35 35 34 32 29 26 24 23 23 22 21 19 17 16 15 15 15 15 13 12 12 12 13 14 13 17 18 17 15 8 8
16 19 20 22 25 26 27 31 32 33 35 36 36 36 36 35 30 28 25 24 25 24 23 20 19 17 16 16 16 16 14 12 12 11 10 13 13 15 17 14 15 16 15
13 16 19 21 23 24 27 30 32 31 33 35 36 36 37 36 32 29 25 26 27 26 24 21 20 18 16 15 16 17 13 13 11 9 9 11 13 14 12 13 11 10 8
10 13 16 18 22 25 26 28 29 30 32 32 34 35 35 34 33 30 26 27 28 27 25 23 20 20 17 17 17 19 16 13 11 8 9 9 9 9 9 10 10 9 7
7 9 14 17 21 23 24 25 26 27 27 28 30 31 33 33 33 30 29 29 31 28 27 25 23 20 19 18 17 19 17 11 9 9 8 7 8 8 7 8 9 7 6
13 13 12 15 18 21 23 24 25 25 25 24 26 27 30 31 31 30 30 29 30 30 29 27 23 20 19 18 17 16 13 10 11 10 7 7 7 6 7 8 8 7 8
17 19 20 18 19 20 22 24 23 24 22 21 22 22 24 30 31 30 30 29 29 28 31 27 22 22 20 19 17 15 12 13 12 9 9 8 6 6 6 6 6 6 6
21 22 21 23 22 21 23 25 25 23 21 21 21 23 24 26 28 30 32 29 29 27 27 25 22 23 23 23 20 16 16 15 14 11 10 8 7 4 4 4 3 5 3
19 23 22 21 24 24 24 27 28 31 31 27 28 28 22 22 33 32 32 35 34 31 25 26 22 21 22 21 23 22 20 16 15 14 12 8 6 5 3 3 2 2 2
18 22 22 23 23 24 24 27 27 28 28 31 32 29 29 31 27 25 24 29 33 32 25 23 22 24 24 24 22 20 21 19 18 17 14 10 8 6 5 4 3 2 2
14 19 23 23 24 22 21 19 20 25 20 26 27 28 28 28 27 24 21 22 27 27 27 25 25 25 26 25 24 23 20 23 21 20 16 13 10 8 7 6 5 4 3
15 17 18 23 24 25 22 20 20 17 16 19 22 26 27 29 26 24 23 20 22 27 26 25 26 26 26 27 27 24 23 21 23 21 18 15 12 10 8 8 7 6 4
18 19 18 20 22 24 22 22 18 19 17 20 21 18 22 26 26 26 25 26 25 25 27 25 26 26 29 30 29 27 25 25 25 23 20 17 15 13 10 8 8 7 5
19 19 17 18 20 22 22 20 17 17 17 17 18 19 18 15 22 24 27 28 26 26 26 27 27 29 31 31 29 27 26 25 26 25 22 20 17 15 12 10 9 8 7
17 18 15 16 19 20 20 17 17 16 17 17 21 22 20 20 22 23 25 28 28 28 28 29 28 30 32 31 29 28 28 27 29 29 27 22 19 15 14 11 10 9 7
15 17 17 17 20 20 19 18 15 16 16 18 21 23 18 20 20 22 26 28 28 31 31 31 31 34 33 32 32 30 29 29 31 31 29 25 21 18 14 12 11 10 9
13 17 17 14 15 18 17 15 16 18 19 19 22 21 20 20 21 22 24 27 29 31 33 34 33 33 32 31 32 33 33 34 35 33 31 28 25 21 17 14 12 11 11
13 14 14 14 14 15 15 17 17 18 19 19 19 21 20 21 22 24 25 27 30 32 33 35 35 34 32 31 32 32 32 32 33 32 31 30 28 24 19 16 14 13 11
11 11 14 15 15 15 16 17 17 18 18 18 18 19 20 20 20 23 24 27 29 30 33 35 35 34 32 31 32 32 32 31 30 30 30 29 28 25 22 18 15 13 12
11 10 12 15 16 16 16 16 17 18 19 18 18 19 20 19 20 22 23 24 27 29 30 33 34 33 31 32 30 30 30 29 29 29 30 30 28 26 24 20 17 14 14
Wind_Direction
233 233 232 235 235 236 237 238 239 241 241 240 241 244 245 247 249 251 256 263 264 270 274 277 276 281 287 284 289 289 281 271 282 306 315 326 336 340 343 346 346 345 342
236 233 235 236 235 236 237 238 238 239 239 240 241 243 244 246 248 250 254 258 262 265 270 272 275 282 286 280 288 287 281 287 276 304 312 322 331 339 340 344 347 347 344
235 236 235 234 236 236 238 239 239 238 238 238 238 240 243 245 248 250 254 257 260 262 267 270 270 277 284 275 282 280 284 282 286 283 307 313 326 338 344 351 351 352 357
235 234 234 236 238 238 239 240 240 240 240 238 238 240 242 244 246 248 249 255 259 259 263 268 266 269 280 277 276 272 280 276 290 293 300 309 325 337 344 350 351 0 345
230 230 238 240 241 242 242 242 242 241 241 242 241 241 242 242 243 245 247 251 254 257 259 262 264 268 274 270 273 267 274 278 289 297 293 304 321 336 344 344 345 341 336
231 234 238 241 242 242 242 244 244 244 243 241 241 242 242 241 243 245 247 249 250 251 254 258 262 264 263 261 259 256 265 277 289 289 293 296 309 322 332 338 344 354 346
232 238 239 241 244 246 246 242 243 243 243 240 240 241 243 245 243 243 242 244 249 250 251 254 258 260 261 260 252 254 262 267 280 282 283 284 290 310 315 321 337 331 318
240 245 247 246 245 246 244 246 245 245 244 244 242 243 244 246 245 242 238 238 246 249 249 250 252 254 255 257 246 251 264 275 294 287 276 285 281 299 306 306 318 324 336
254 254 253 250 250 248 245 246 246 242 242 244 245 245 245 248 246 241 236 236 243 245 246 245 246 248 250 244 239 250 258 274 296 282 276 279 282 288 293 296 311 328 330
293 283 271 258 253 250 251 250 250 246 248 247 246 247 248 249 249 243 235 235 241 243 244 243 241 243 244 239 238 245 249 269 285 282 293 286 289 292 292 293 300 307 326
289 285 277 269 261 259 259 256 249 248 245 243 246 248 249 247 246 241 236 231 239 240 242 240 237 233 235 236 237 239 245 266 265 276 298 290 286 289 299 304 306 292 298
306 294 279 274 268 264 260 258 253 247 243 243 242 244 247 246 242 240 234 226 238 240 242 243 239 230 229 230 231 236 243 237 250 256 275 273 269 278 287 298 306 309 301
300 299 293 284 276 266 255 254 247 245 237 234 234 235 238 245 243 235 234 229 228 231 243 245 240 227 222 225 227 228 228 226 230 241 253 257 257 271 289 303 314 317 318
294 293 293 291 285 275 264 255 248 240 234 230 230 232 233 236 239 237 228 227 227 227 237 241 233 225 220 225 227 224 224 226 223 235 246 249 252 259 282 296 313 331 335
296 298 299 297 293 284 272 263 253 254 245 235 235 237 228 226 242 242 233 223 222 219 218 230 218 211 213 219 224 224 223 212 215 226 236 236 232 224 228 256 280 316 334
298 303 307 305 300 293 285 281 270 261 258 258 256 251 253 255 258 255 245 235 232 227 207 212 211 210 212 214 215 216 219 214 214 220 227 231 225 215 203 208 222 221 234
294 301 307 305 298 292 287 274 278 288 273 257 251 245 240 254 253 243 239 229 224 212 207 210 211 209 212 214 217 218 216 219 215 215 221 224 222 217 205 204 209 210 215
300 299 304 306 302 296 287 273 267 265 273 271 259 243 244 237 241 243 235 216 206 209 207 209 211 210 211 216 221 224 223 216 208 208 216 219 216 212 207 209 212 213 209
302 303 306 303 301 301 291 285 272 264 258 263 272 263 248 239 232 230 227 209 202 206 208 213 212 213 216 223 227 228 222 210 205 206 210 215 216 210 210 213 214 215 212
305 306 307 307 308 304 299 286 277 268 263 260 258 255 256 231 222 219 219 217 210 211 209 213 214 218 224 228 228 227 221 211 207 208 209 211 213 214 212 209 211 211 213
300 302 311 304 307 303 296 286 278 270 265 261 262 269 263 229 219 217 218 219 215 214 212 214 216 221 227 227 225 223 218 210 210 212 211 208 208 208 215 213 208 211 213
307 310 313 307 307 304 302 299 286 274 268 266 268 273 264 232 227 223 220 221 219 220 218 217 219 229 228 224 223 221 215 210 211 212 212 210 205 206 209 210 207 205 207
309 313 310 303 301 304 307 306 296 283 274 268 270 268 264 240 232 229 225 225 222 221 224 223 224 229 231 229 226 225 220 215 216 214 211 210 206 201 202 206 206 202 202
313 312 307 306 309 311 311 310 303 295 284 275 270 267 259 258 248 240 234 229 228 226 227 230 229 232 231 226 224 224 225 224 221 216 215 212 209 206 202 203 205 207 204
317 317 316 314 314 313 312 312 309 306 295 285 277 270 267 263 257 253 245 238 234 228 230 233 233 233 230 226 223 221 220 221 220 216 212 213 212 208 204 201 201 202 202
319 317 312 308 305 307 303 306 303 299 298 296 290 281 273 267 265 265 254 246 239 234 231 236 235 231 228 223 222 221 218 214 214 212 210 209 210 208 204 200 201 201 201